This is the latest recevied weather packets stored in our database for station/object N3TTT-13. If no packets are shown the sender has not sent any weather packets the latest 10 day(s).
| Time | Temp. | Humidity | Pressure | Rain* | Wind** | Luminosity | Snow |
|---|---|---|---|---|---|---|---|
| 1777313300 | 19.44° C | 48% | 1023.6 hPa | 0 mm | - | 573 W/m² | - |
| 1777312996 | 19.44° C | 47% | 1023.8 hPa | 0 mm | - | 599 W/m² | - |
| 1777312692 | 19.44° C | 47% | 1023.8 hPa | 0 mm | - | 637 W/m² | - |
| 1777312389 | 20° C | 50% | 1023.9 hPa | 0 mm | - | 665 W/m² | - |
| 1777312086 | 19.44° C | 49% | 1024.1 hPa | 0 mm | - | 653 W/m² | - |
| 1777311783 | 19.44° C | 52% | 1024.3 hPa | 0 mm | - | 629 W/m² | - |
| 1777311480 | 19.44° C | 54% | 1024.2 hPa | 0 mm | - | 633 W/m² | - |
| 1777311177 | 18.89° C | 52% | 1024.2 hPa | 0 mm | - | 636 W/m² | - |
| 1777310876 | 19.44° C | 50% | 1024.2 hPa | 0 mm | - | 658 W/m² | - |
| 1777310573 | 19.44° C | 50% | 1024.1 hPa | 0 mm | - | 680 W/m² | - |
| 1777310270 | 18.89° C | 51% | 1024.3 hPa | 0 mm | - | 655 W/m² | - |
| 1777309967 | 18.89° C | 51% | 1024.4 hPa | 0 mm | - | 634 W/m² | - |
| 1777309665 | 18.89° C | 51% | 1024.6 hPa | 0 mm | - | 626 W/m² | - |
| 1777309362 | 19.44° C | 52% | 1024.3 hPa | 0 mm | - | 655 W/m² | - |
| 1777309060 | 18.89° C | 49% | 1024.5 hPa | 0 mm | - | 618 W/m² | - |
| 1777308757 | 19.44° C | 49% | 1024.4 hPa | 0 mm | - | 590 W/m² | - |
| 1777308452 | 18.89° C | 49% | 1024.4 hPa | 0 mm | - | 646 W/m² | - |
| 1777308148 | 18.33° C | 53% | 1024.3 hPa | 0 mm | - | 696 W/m² | - |
| 1777307844 | 17.78° C | 53% | 1024.4 hPa | 0 mm | - | 718 W/m² | - |
| 1777307543 | 18.33° C | 52% | 1024.5 hPa | 0 mm | - | 727 W/m² | - |
| 1777307239 | 18.33° C | 56% | 1024.6 hPa | 0 mm | - | 701 W/m² | - |
| 1777306936 | 17.78° C | 57% | 1024.5 hPa | 0 mm | - | 673 W/m² | - |
| 1777306633 | 17.78° C | 59% | 1024.5 hPa | 0 mm | - | 706 W/m² | - |
| 1777306329 | 17.78° C | 61% | 1024.7 hPa | 0 mm | - | 714 W/m² | - |
| 1777306024 | 17.78° C | 57% | 1024.6 hPa | 0 mm | - | 718 W/m² | - |
* Rain latest hour (hover to see other rain measurements)
** Current wind speed in m/s (hover to see current wind gust speed)